Temperature
8 8 8 9 9 9 9 10 10 10 10 10 10 10 10 10 10 10 10 10 10 10 10 10 10 10 10 11 10 10 10 10 10 10 10 10 10 10 10 10 10 10 10
7 8 8 8 8 8 9 9 9 9 9 9 9 10 10 10 10 10 10 10 10 10 10 10 10 10 10 10 10 10 10 10 10 10 10 10 10 10 10 10 10 10 10
7 7 7 7 8 8 8 8 8 9 9 9 9 9 9 9 9 9 9 9 10 10 10 10 10 10 10 10 10 10 10 10 10 10 9 9 9 9 9 9 9 9 9
6 6 6 7 7 7 7 8 8 8 8 8 9 9 9 9 9 9 9 9 9 9 9 9 10 9 9 9 9 9 9 9 9 9 9 9 9 9 9 9 9 9 9
5 6 6 6 6 6 7 7 7 7 8 8 8 8 8 8 9 9 9 9 9 9 9 9 9 9 9 9 9 9 9 9 9 9 9 9 9 9 9 9 9 9 9
5 5 5 5 6 6 6 6 7 7 7 7 8 8 8 8 8 8 8 8 8 8 8 8 9 8 9 9 9 8 8 9 9 8 8 8 8 9 9 9 9 9 9
4 4 4 5 5 5 5 6 6 6 6 7 7 7 7 7 8 8 8 8 8 8 8 8 8 8 8 8 8 8 8 8 8 8 8 8 8 8 8 8 8 8 8
3 4 4 4 4 4 5 5 5 6 6 6 6 6 6 6 7 7 7 7 8 8 8 8 8 8 8 8 8 8 8 8 8 8 8 8 8 8 8 8 8 8 8
3 3 3 3 4 4 4 4 5 5 5 5 5 5 6 6 6 6 7 7 7 7 7 7 7 7 7 7 7 7 7 7 7 7 7 8 8 8 8 8 8 7 8
2 2 2 3 3 3 3 4 4 4 4 5 5 5 5 5 5 5 6 6 6 6 6 7 7 7 7 7 7 7 7 7 7 7 7 7 7 7 7 7 7 7 7
2 2 2 2 2 3 3 3 3 4 4 4 4 4 5 5 5 5 5 5 5 6 6 6 6 6 6 6 6 6 6 6 6 6 6 6 7 7 7 7 7 7 7
1 1 1 1 2 2 2 3 3 3 3 3 4 4 4 4 4 4 4 5 5 5 5 5 6 6 6 6 6 6 6 6 6 6 6 6 6 6 6 6 6 6 6
0 0 1 1 1 1 2 2 2 2 3 3 3 3 3 4 4 4 4 4 4 4 5 5 5 5 5 5 5 5 6 6 6 5 5 6 6 6 6 6 6 6 6
-0 -0 -0 0 0 1 1 1 1 2 2 2 2 3 3 3 3 3 4 3 3 3 4 4 5 5 5 5 5 5 5 5 5 5 5 5 5 5 6 6 6 6 6
-1 -1 -1 -0 -0 0 0 0 1 1 1 2 2 2 2 2 3 3 3 3 3 3 3 3 4 4 4 4 4 5 5 5 5 5 5 5 5 5 5 5 5 5 5
-1 -1 -1 -1 -1 -1 -0 -0 0 0 1 1 1 1 2 2 2 2 2 3 3 3 2 3 3 3 3 4 4 4 4 4 4 4 4 4 4 4 4 5 5 5 5
-1 -1 -1 -1 -1 -1 -1 -1 -0 -0 0 0 1 1 1 1 2 2 2 2 2 2 2 2 3 3 3 3 3 3 4 4 4 4 4 4 4 4 4 4 4 4 4
-2 -2 -2 -1 -1 -1 -1 -1 -1 -1 -0 -0 0 1 1 1 1 1 2 2 2 2 2 2 2 2 2 3 3 3 3 3 3 3 3 3 3 3 3 3 3 4 4
-2 -2 -2 -2 -2 -2 -2 -1 -1 -1 -1 -1 -0 0 0 1 1 1 1 1 1 1 1 1 1 1 2 2 2 2 2 2 2 3 3 3 3 3 3 3 3 3 3
-3 -2 -2 -2 -2 -2 -2 -2 -2 -1 -1 -1 -1 -0 -0 0 0 1 1 1 1 1 1 1 1 1 1 1 1 1 1 2 2 2 2 2 2 2 2 2 2 2 3
-3 -3 -3 -2 -2 -2 -2 -2 -2 -2 -2 -2 -1 -1 -1 -0 -0 0 0 0 0 0 -0 -0 0 -0 0 0 0 1 1 1 1 1 1 1 2 2 2 2 2 2 2
-3 -3 -3 -3 -3 -2 -2 -2 -2 -2 -2 -2 -2 -2 -1 -1 -1 -1 -0 -0 -0 -0 -1 -0 -1 -1 -0 -0 -0 0 -0 -0 -0 0 0 1 1 1 1 1 1 1 1
-4 -4 -4 -3 -3 -2 -2 -2 -3 -3 -3 -3 -3 -2 -2 -2 -2 -2 -1 -1 -1 -1 -1 -1 -1 -1 -1 -1 -1 -1 -0 -0 -0 -0 -0 -0 0 0 0 0 1 1 1
-4 -4 -4 -4 -3 -3 -3 -3 -3 -3 -3 -3 -3 -3 -2 -2 -2 -2 -2 -2 -2 -1 -1 -1 -1 -1 -1 -1 -1 -1 -1 -1 -1 -1 -1 -1 -1 -1 -1 -0 0 0 0
-5 -4 -4 -4 -4 -3 -3 -3 -4 -4 -4 -4 -4 -3 -3 -3 -3 -3 -3 -3 -3 -2 -2 -2 -2 -2 -2 -2 -2 -2 -2 -2 -2 -2 -1 -2 -1 -1 -1 -1 -1 -0 -1
-5 -5 -5 -4 -4 -4 -4 -4 -4 -4 -4 -4 -4 -4 -3 -3 -3 -3 -3 -3 -3 -3 -3 -3 -3 -2 -2 -2 -2 -2 -2 -2 -2 -2 -2 -2 -2 -2 -2 -2 -2 -1 -1
Wind_Speed
0 1 1 1 1 0 0 0 1 2 2 3 4 4 4 4 4 4 4 6 5 4 6 7 7 8 8 9 8 8 8 8 8 7 7 7 7 7 6 6 6 6 6
1 0 1 1 1 0 1 1 1 1 2 2 3 4 4 4 3 3 4 5 5 4 4 6 7 7 8 8 8 8 8 8 7 7 6 6 6 6 5 5 5 5 5
1 1 1 1 1 1 1 1 1 1 2 2 3 3 3 3 3 3 4 4 4 4 4 5 6 6 7 7 8 8 7 7 6 6 6 5 5 4 4 4 4 4 3
2 2 1 1 1 1 1 2 1 2 2 2 2 2 2 3 4 4 4 4 4 4 4 5 5 5 6 6 7 7 7 7 6 6 5 5 4 4 4 3 3 2 2
3 2 2 2 2 1 1 2 2 2 2 2 2 2 2 2 3 3 4 4 3 4 4 5 5 5 5 5 6 6 6 6 6 5 5 4 4 3 3 3 2 2 1
3 3 2 2 2 2 2 2 2 2 2 2 2 2 1 2 3 3 4 3 3 4 4 5 5 5 4 5 5 5 5 5 5 5 4 3 3 2 2 1 1 1 1
3 3 2 3 3 3 3 3 2 3 3 2 2 2 1 1 2 3 3 3 3 4 4 4 4 5 4 5 5 4 4 4 4 4 4 4 3 2 1 1 1 1 1
3 3 4 3 3 3 4 3 3 3 2 3 3 3 3 3 2 3 3 3 3 4 3 4 4 4 4 5 4 5 4 4 4 4 3 3 3 3 2 1 1 1 2
4 4 4 4 4 4 4 4 4 4 4 3 3 3 3 3 2 3 3 3 4 4 3 4 4 4 4 4 4 5 5 5 4 4 4 3 3 3 3 3 2 2 2
5 5 5 5 5 4 5 5 4 4 5 4 3 2 2 1 2 2 3 4 4 4 4 4 4 5 5 5 4 4 5 5 5 4 4 4 3 3 3 3 3 2 2
5 5 5 5 6 5 6 5 5 5 5 5 4 3 3 2 2 3 3 4 3 4 4 5 4 5 5 5 5 5 5 6 6 6 5 5 4 3 3 3 3 3 3
4 5 6 5 6 6 6 6 6 6 6 6 5 4 4 4 4 3 4 5 4 3 4 4 4 4 5 5 5 5 7 7 6 6 6 5 4 4 4 4 4 4 4
5 6 6 6 5 6 7 7 6 6 6 7 6 5 5 5 4 4 4 3 3 2 3 4 4 5 4 5 5 6 7 7 7 6 6 6 5 4 4 5 4 5 5
6 6 7 6 6 7 7 7 7 7 6 7 7 7 5 5 5 4 4 3 3 3 3 3 3 4 4 5 5 6 7 7 7 7 6 6 5 5 5 5 5 5 5
5 7 7 7 7 7 7 7 7 7 7 7 7 7 6 5 5 4 4 4 5 5 5 3 3 4 4 4 4 6 6 6 8 8 7 6 6 6 6 5 5 5 5
7 7 7 7 7 7 8 8 7 8 8 8 7 7 7 5 6 5 5 5 5 4 4 3 3 3 4 4 6 7 7 7 8 8 8 8 7 7 7 6 5 5 5
7 7 7 8 8 8 8 8 8 9 9 9 8 8 8 7 6 6 6 5 5 4 5 4 3 3 5 5 4 6 7 7 8 8 9 9 8 8 8 7 6 6 5
7 8 8 8 8 8 8 9 9 9 10 10 9 9 9 7 8 7 6 6 6 5 5 6 4 4 5 6 6 5 5 6 7 8 9 9 9 9 8 8 7 7 6
7 8 8 8 8 8 9 10 10 10 10 10 10 10 10 9 9 8 8 7 6 5 5 6 5 4 4 5 6 5 5 5 6 6 8 9 9 10 10 9 8 7 7
7 8 8 9 8 8 10 10 10 10 10 10 10 10 10 10 10 9 8 8 7 6 6 6 5 5 5 5 5 5 5 4 4 4 6 7 8 9 9 9 9 8 8
7 7 8 9 9 8 9 9 9 10 10 10 10 10 10 10 11 10 8 8 8 7 6 6 6 5 5 5 6 5 5 4 4 4 4 5 6 6 7 9 9 9 9
6 6 8 8 9 8 10 12 10 9 10 10 10 10 10 11 11 12 12 10 9 9 8 7 6 7 7 6 5 5 5 4 4 3 4 4 4 5 6 7 8 9 10
5 5 7 8 8 9 10 11 11 10 10 10 10 10 9 9 11 10 11 11 11 11 11 9 8 9 8 7 7 7 6 6 5 4 4 5 4 5 6 7 8 9 10
5 5 6 6 7 7 9 9 10 10 9 10 10 10 10 9 10 10 10 9 10 10 11 10 10 9 7 7 7 7 6 5 4 4 4 5 4 5 5 7 8 9 10
5 5 5 5 6 6 7 8 9 7 8 9 9 10 10 10 11 12 10 10 10 9 9 10 10 9 9 8 7 5 5 5 5 4 4 4 3 4 5 5 6 8 9
5 4 4 4 5 5 6 7 9 6 7 7 7 8 10 12 12 13 11 11 11 9 7 7 7 8 8 9 10 8 7 7 4 4 4 4 3 2 3 3 4 5 7
Wind_Direction
343 354 351 349 337 316 161 110 139 145 137 142 149 149 150 150 141 138 123 113 116 127 142 148 147 142 140 134 129 125 118 113 109 102 98 95 92 89 89 85 82 78 77
266 278 305 317 318 272 237 219 199 172 166 143 152 156 159 154 152 148 142 130 119 119 133 146 146 145 143 140 134 127 122 117 114 109 104 101 96 91 87 88 84 81 76
248 241 236 242 278 270 245 214 201 182 174 164 163 164 159 159 154 158 156 157 150 133 130 141 142 144 145 145 143 135 131 129 123 116 107 104 99 96 88 85 84 84 82
247 238 226 229 250 250 247 213 204 209 200 189 179 175 173 170 167 164 162 163 165 162 151 140 138 141 143 145 146 140 138 135 131 127 122 112 103 100 91 84 83 88 88
244 237 222 224 228 229 230 220 211 208 205 203 190 186 184 184 174 167 167 166 171 172 169 155 148 148 152 155 156 151 148 144 142 138 133 122 113 104 98 93 88 82 80
255 232 218 217 223 220 225 221 214 203 204 200 194 186 186 191 182 176 176 174 176 181 180 177 170 163 161 167 163 161 159 154 148 147 150 149 139 124 105 101 90 67 42
278 234 220 214 223 225 227 220 212 195 193 190 186 178 177 180 183 184 179 179 178 183 182 184 181 180 181 182 169 164 170 165 163 162 164 172 177 174 165 134 70 20 349
272 249 220 218 222 224 222 221 211 201 197 199 193 182 194 194 201 199 189 196 193 186 184 184 185 189 193 189 176 167 173 178 176 177 178 182 193 204 206 206 235 306 328
260 252 235 222 221 222 223 223 218 208 198 204 206 204 205 205 189 193 197 200 201 200 198 194 193 193 193 190 187 180 175 184 192 192 194 198 209 223 225 224 238 257 295
251 250 236 227 219 223 228 225 221 218 204 203 206 221 242 193 193 188 191 198 207 209 208 203 202 200 198 195 193 186 185 190 199 205 210 214 219 236 241 242 240 257 290
244 245 237 232 224 222 226 224 227 218 212 211 206 207 205 210 219 213 206 195 204 214 213 209 204 203 202 198 196 193 189 193 202 210 220 224 230 241 253 258 256 260 276
239 239 234 230 229 226 226 225 225 221 218 217 212 211 204 200 205 210 215 207 208 214 212 209 208 207 204 201 201 191 194 199 207 214 218 222 231 245 258 265 264 268 275
241 239 235 230 231 232 228 227 224 222 220 218 216 215 217 217 215 220 216 219 222 221 216 218 213 210 205 206 205 195 201 204 210 214 220 224 225 236 260 264 264 266 272
241 241 237 231 234 238 232 228 222 221 220 220 222 221 220 219 215 220 213 216 219 223 220 219 210 207 206 210 207 200 211 206 212 217 224 230 228 230 248 258 260 268 272
240 238 238 231 232 235 233 228 223 221 220 220 220 221 221 223 219 224 222 217 218 219 220 212 206 208 207 213 202 210 219 218 220 221 225 231 231 229 236 245 255 261 270
240 240 240 231 230 231 231 226 223 221 219 220 219 220 222 223 218 219 223 225 231 225 226 217 226 222 222 237 222 223 227 224 223 224 227 230 234 230 233 238 249 258 265
239 237 240 233 231 230 230 227 222 220 220 221 220 221 223 222 218 215 216 221 227 233 231 237 247 231 230 231 228 228 226 225 227 229 231 231 234 234 235 239 243 249 256
241 236 237 234 232 230 229 228 223 221 220 220 220 221 223 222 221 219 216 219 223 228 231 233 239 234 233 230 227 231 233 231 231 231 231 232 233 232 231 236 235 238 247
247 239 237 235 233 234 234 233 225 222 222 224 223 222 223 221 221 220 219 219 223 226 228 227 235 234 236 228 227 231 235 236 238 230 226 229 232 233 231 232 232 235 242
249 240 238 238 235 237 236 235 227 223 223 226 227 226 225 224 221 219 220 219 219 222 222 219 226 229 232 230 223 224 233 233 239 239 232 232 232 229 229 233 234 236 238
256 243 239 238 236 237 235 232 228 226 225 226 228 228 228 230 227 222 221 217 214 218 219 216 222 232 232 221 223 222 233 241 245 231 238 239 236 233 231 230 231 236 241
264 248 242 239 238 239 235 234 233 229 228 228 229 230 229 229 225 226 227 227 223 218 218 218 225 225 229 230 228 225 224 238 242 221 242 249 243 239 240 235 237 237 240
266 257 251 244 244 246 241 239 234 233 230 228 228 229 228 226 222 222 223 226 231 230 226 225 226 228 230 227 221 224 227 233 250 241 242 248 242 244 247 242 240 238 240
266 262 259 255 254 253 249 246 241 236 235 233 231 230 230 228 221 219 220 222 227 227 222 224 228 231 233 228 223 228 235 246 265 245 226 242 246 251 257 248 239 239 240
274 270 270 265 266 266 259 250 240 235 232 236 235 232 230 229 224 220 218 220 226 232 229 229 235 234 229 224 221 219 219 225 247 246 229 231 249 265 263 257 242 233 240
281 285 285 279 273 275 277 258 237 231 233 233 231 231 230 231 227 221 219 219 224 227 223 225 232 232 227 222 218 219 218 221 237 242 221 221 238 248 261 257 255 248 250
Height
1519 1520 1521 1522 1522 1523 1525 1526 1527 1528 1529 1531 1532 1533 1535 1536 1538 1539 1540 1541 1543 1544 1545 1546 1547 1548 1549 1549 1550 1551 1552 1552 1553 1553 1553 1554 1554 1554 1555 1555 1555 1555 1555
1516 1517 1518 1519 1520 1521 1522 1523 1524 1526 1527 1528 1529 1531 1532 1534 1535 1537 1538 1540 1541 1542 1544 1545 1546 1547 1548 1549 1549 1550 1551 1551 1552 1552 1553 1553 1554 1554 1554 1555 1555 1555 1555
1514 1514 1515 1516 1517 1519 1520 1521 1522 1523 1525 1526 1527 1529 1530 1532 1533 1535 1536 1538 1539 1540 1542 1543 1544 1546 1547 1547 1548 1549 1550 1550 1551 1551 1552 1553 1553 1554 1554 1554 1554 1554 1554
1511 1511 1512 1513 1515 1516 1517 1518 1519 1520 1522 1523 1525 1526 1528 1529 1531 1532 1534 1535 1537 1538 1540 1541 1542 1544 1545 1546 1547 1548 1548 1549 1550 1550 1551 1552 1552 1552 1553 1553 1553 1554 1554
1507 1508 1509 1510 1512 1513 1514 1515 1516 1517 1519 1520 1522 1523 1525 1526 1528 1529 1531 1533 1534 1536 1537 1539 1540 1542 1543 1544 1545 1546 1547 1547 1548 1549 1550 1550 1551 1551 1552 1552 1552 1552 1552
1504 1505 1506 1507 1508 1509 1510 1512 1513 1515 1516 1517 1519 1520 1522 1524 1525 1526 1528 1530 1532 1533 1535 1536 1538 1539 1541 1542 1543 1544 1545 1546 1546 1547 1548 1549 1549 1550 1550 1550 1550 1551 1551
1500 1501 1502 1504 1505 1506 1507 1509 1510 1511 1513 1514 1516 1517 1519 1521 1522 1523 1525 1527 1529 1530 1532 1533 1535 1536 1538 1539 1540 1541 1543 1543 1544 1545 1546 1547 1547 1548 1548 1548 1549 1549 1549
1497 1497 1499 1500 1501 1503 1504 1505 1507 1508 1509 1511 1513 1514 1517 1519 1518 1520 1521 1523 1525 1527 1529 1530 1532 1533 1535 1536 1537 1538 1540 1541 1542 1543 1544 1544 1545 1546 1546 1546 1547 1547 1547
1493 1494 1495 1496 1498 1499 1500 1501 1503 1504 1506 1508 1509 1511 1513 1514 1515 1517 1518 1520 1521 1524 1526 1527 1529 1530 1532 1533 1534 1535 1537 1538 1539 1540 1541 1542 1542 1543 1544 1544 1544 1544 1544
1488 1489 1490 1492 1494 1495 1496 1497 1499 1501 1502 1504 1506 1507 1509 1509 1512 1513 1515 1516 1518 1520 1522 1524 1525 1527 1528 1530 1531 1532 1534 1535 1537 1538 1539 1539 1540 1541 1541 1541 1542 1542 1542
1484 1485 1486 1487 1489 1491 1492 1493 1495 1496 1498 1500 1502 1503 1505 1506 1508 1510 1511 1513 1515 1516 1518 1520 1522 1523 1525 1526 1527 1529 1530 1532 1533 1535 1536 1537 1537 1538 1538 1538 1539 1539 1539
1479 1480 1481 1483 1484 1486 1487 1489 1490 1492 1494 1496 1498 1499 1501 1502 1504 1506 1507 1509 1510 1512 1514 1516 1518 1520 1521 1522 1524 1525 1527 1528 1530 1531 1532 1533 1534 1534 1535 1535 1535 1536 1536
1475 1475 1477 1478 1479 1481 1483 1484 1486 1487 1489 1491 1493 1495 1497 1498 1500 1502 1504 1505 1507 1508 1510 1512 1514 1516 1517 1518 1520 1521 1523 1524 1526 1527 1528 1529 1530 1531 1531 1532 1532 1532 1532
1470 1471 1472 1473 1475 1476 1478 1479 1481 1483 1485 1487 1488 1490 1492 1494 1496 1498 1499 1501 1503 1504 1505 1507 1509 1511 1512 1514 1516 1517 1519 1520 1522 1523 1524 1525 1526 1527 1527 1528 1528 1528 1528
1466 1467 1467 1468 1470 1471 1473 1474 1476 1478 1480 1482 1484 1486 1488 1489 1491 1493 1495 1497 1499 1499 1501 1502 1505 1506 1508 1510 1511 1513 1515 1516 1518 1519 1520 1521 1522 1523 1523 1523 1524 1524 1524
1461 1462 1462 1463 1464 1466 1467 1469 1471 1473 1475 1477 1479 1481 1483 1485 1487 1489 1490 1492 1494 1495 1496 1497 1499 1501 1503 1505 1507 1508 1510 1511 1513 1514 1515 1516 1517 1518 1519 1519 1519 1519 1519
1456 1456 1457 1458 1459 1460 1462 1464 1466 1468 1469 1471 1473 1475 1478 1480 1481 1484 1486 1487 1489 1490 1490 1492 1494 1496 1498 1500 1501 1503 1505 1506 1507 1509 1510 1511 1512 1513 1513 1514 1514 1514 1514
1451 1451 1452 1452 1454 1455 1456 1458 1460 1462 1464 1466 1468 1470 1472 1474 1476 1479 1480 1482 1484 1485 1486 1486 1488 1490 1493 1495 1496 1497 1499 1501 1502 1503 1504 1505 1506 1507 1508 1509 1509 1509 1509
1445 1446 1446 1447 1448 1449 1451 1453 1454 1456 1458 1460 1462 1464 1466 1468 1471 1473 1475 1477 1479 1480 1481 1483 1483 1485 1487 1489 1491 1492 1494 1495 1496 1497 1499 1500 1501 1502 1503 1503 1504 1504 1504
1439 1440 1440 1441 1443 1444 1446 1447 1449 1450 1452 1454 1456 1458 1460 1462 1465 1467 1469 1471 1473 1475 1477 1478 1479 1480 1482 1484 1485 1486 1488 1490 1491 1492 1493 1494 1495 1496 1497 1498 1498 1498 1499
1434 1434 1435 1436 1437 1439 1440 1441 1443 1444 1446 1448 1450 1452 1454 1456 1459 1461 1463 1465 1467 1470 1471 1472 1474 1475 1477 1478 1480 1481 1482 1483 1485 1486 1488 1489 1490 1490 1491 1492 1492 1493 1493
1429 1429 1430 1430 1431 1433 1434 1436 1437 1439 1440 1442 1444 1445 1448 1450 1453 1455 1457 1460 1462 1464 1466 1467 1468 1469 1471 1473 1475 1476 1477 1478 1479 1481 1482 1483 1484 1484 1485 1485 1486 1487 1487
1424 1424 1425 1425 1426 1427 1428 1430 1431 1433 1435 1436 1438 1440 1442 1444 1446 1449 1451 1453 1456 1457 1460 1462 1462 1464 1466 1468 1470 1471 1472 1473 1473 1475 1477 1477 1478 1478 1479 1480 1480 1481 1481
1420 1420 1420 1420 1421 1422 1423 1424 1425 1427 1429 1430 1432 1433 1436 1438 1441 1443 1445 1447 1449 1451 1453 1455 1457 1459 1461 1463 1464 1466 1466 1468 1469 1469 1471 1471 1472 1473 1474 1474 1475 1475 1476
1417 1417 1416 1415 1415 1416 1417 1418 1420 1421 1422 1424 1426 1427 1429 1432 1434 1437 1439 1441 1442 1444 1447 1449 1451 1453 1455 1457 1458 1460 1461 1462 1462 1463 1465 1466 1467 1468 1468 1469 1469 1470 1470
1414 1413 1412 1412 1411 1412 1412 1413 1414 1416 1417 1418 1420 1421 1423 1425 1428 1431 1433 1435 1436 1438 1441 1443 1445 1446 1448 1450 1452 1453 1455 1456 1457 1458 1459 1461 1462 1463 1462 1463 1464 1464 1465